Preview of NWS' New Version of Forecast
This preview is not operational and should not be used for support decisions.

Regional Weather Roundup (RWR)

Issued by National Weather Service (NWS)

                            
000
ASUS45 KCYS 251410
RWRWY 

WYOMING REGIONAL WEATHER ROUNDUP
NATIONAL WEATHER SERVICE CHEYENNE WY
800 AM MDT SUN AUG 25 2019

NOTE:  "FAIR" INDICATES FEW OR NO CLOUDS BELOW 12,000 FEET
WITH NO SIGNIFICANT WEATHER AND/OR OBSTRUCTIONS TO VISIBILITY.

WYZ001-251500-
YELLOWSTONE NATIONAL PARK
  
CITY           SKY/WX    TMP DP  RH WIND       PRES   REMARKS
LK YELLOWSTONE   N/A     47  38  71 CALM      30.17S                  
W YELLOWSTONE  NOT AVBL                                               

$$
WYZ002>013-054>058-071-098>099-251500-
NORTHERN WYOMING
  
CITY           SKY/WX    TMP DP  RH WIND       PRES   REMARKS
JACKSON        FAIR      60  37  42 W7        30.10R                  
CODY           FAIR      65  44  46 CALM      30.00R                  
GREYBULL       FAIR      60  46  59 CALM      29.87R                  
WORLAND        FAIR      64  48  56 S9        29.91R                  
SHERIDAN       CLOUDY    63  54  72 CALM      29.92R                  
BUFFALO        FAIR      63  51  65 NW7         N/A                   
GILLETTE       FAIR      61  55  81 CALM      29.90R                  
HULETT         FAIR      61  54  77 E6        29.90F                  
NEWCASTLE      FAIR      63  52  67 CALM      29.87S                  

$$
WYZ014>020-022>026-101>103-251500-
CENTRAL WYOMING
  
CITY           SKY/WX    TMP DP  RH WIND       PRES   REMARKS
BIG PINEY      FAIR      55  34  45 NE3       30.16R                  
PINEDALE       FAIR      48  36  61 W5        30.18R                  
DUBOIS         FAIR      59  30  33 NW8       30.12R                  
LANDER         FAIR      66  38  35 SE7       30.02R                  
RIVERTON       FAIR      70  36  28 NW8       30.00R                  
CASPER         FAIR      70  38  31 NW5       29.96R                  
DOUGLAS        FAIR      58  50  75 CALM      29.93R                  

$$
WYZ021-027>030-104>119-251500-
SOUTHERN WYOMING
  
CITY           SKY/WX    TMP DP  RH WIND       PRES   REMARKS
EVANSTON       FAIR      59  32  36 SW10      30.20R                  
KEMMERER       FAIR      61  32  33 SW3       30.20R                  
ROCK SPRINGS   FAIR      65  31  28 SW13      30.15R                  
DIXON          FAIR      52  33  48 E10G17    30.18S                  
RAWLINS        FAIR      65  30  27 SW10      30.13R                  
SARATOGA       FAIR      59  32  36 E3        30.16R                  
LARAMIE        FAIR      67  29  24 W9        30.13R                  
CHEYENNE       FAIR      70  36  28 W9        30.04R                  
TORRINGTON     FOG       59  59 100 CALM      29.88R VSB<1/4          
PINE BLUFFS    FAIR      61  45  55 W9        29.97R                  

$$